TimeEST,TemperatureF,Dew PointF,Humidity,Sea Level PressureIn,VisibilityMPH,Wind Direction,Wind SpeedMPH,Gust SpeedMPH,PrecipitationIn,Events,Conditions,WindDirDegrees,DateUTC
12:00 AM,28.8,25.3,87,30.36,10.0,Calm,Calm,-,N/A,,Clear,0,2013-02-07 05:00:00
12:20 AM,28.0,25.3,90,30.36,10.0,Calm,Calm,-,N/A,,Clear,0,2013-02-07 05:20:00
12:40 AM,28.9,27.0,92,30.38,10.0,Calm,Calm,-,N/A,,Clear,0,2013-02-07 05:40:00
1:00 AM,27.9,25.2,90,30.39,10.0,Calm,Calm,-,N/A,,Clear,0,2013-02-07 06:00:00
1:20 AM,27.5,25.2,91,30.40,10.0,Calm,Calm,-,N/A,,Clear,0,2013-02-07 06:20:00
1:40 AM,27.7,25.9,93,30.40,10.0,Calm,Calm,-,N/A,,Clear,0,2013-02-07 06:40:00
2:00 AM,27.3,26.2,96,30.41,10.0,Calm,Calm,-,N/A,,Clear,0,2013-02-07 07:00:00
2:20 AM,27.1,25.3,93,30.41,10.0,Calm,Calm,-,N/A,,Clear,0,2013-02-07 07:20:00
2:40 AM,26.4,25.5,96,30.41,7.0,Calm,Calm,-,N/A,,Clear,0,2013-02-07 07:40:00
3:00 AM,26.6,25.5,96,30.41,10.0,Calm,Calm,-,N/A,,Clear,0,2013-02-07 08:00:00
3:20 AM,27.0,25.5,94,30.40,10.0,Calm,Calm,-,N/A,,Clear,0,2013-02-07 08:20:00
3:40 AM,27.1,25.5,94,30.39,10.0,Calm,Calm,-,N/A,,Clear,0,2013-02-07 08:40:00
4:00 AM,27.3,25.7,94,30.38,10.0,Calm,Calm,-,N/A,,Clear,0,2013-02-07 09:00:00
4:20 AM,28.0,26.6,94,30.38,10.0,Calm,Calm,-,N/A,,Clear,0,2013-02-07 09:20:00
4:40 AM,28.2,26.2,92,30.39,10.0,Calm,Calm,-,N/A,,Clear,0,2013-02-07 09:40:00
5:00 AM,28.2,26.1,92,30.40,10.0,Calm,Calm,-,N/A,,Clear,0,2013-02-07 10:00:00
5:20 AM,27.7,25.7,92,30.40,10.0,Calm,Calm,-,N/A,,Clear,0,2013-02-07 10:20:00
5:40 AM,27.5,26.4,96,30.41,7.0,Calm,Calm,-,N/A,,Clear,0,2013-02-07 10:40:00
6:00 AM,27.9,26.2,94,30.42,10.0,Calm,Calm,-,N/A,,Clear,0,2013-02-07 11:00:00
6:20 AM,27.5,25.9,94,30.43,10.0,Calm,Calm,-,N/A,,Clear,0,2013-02-07 11:20:00
6:40 AM,28.2,26.4,93,30.43,10.0,Calm,Calm,-,N/A,,Mostly Cloudy,0,2013-02-07 11:40:00
7:00 AM,28.9,26.4,90,30.44,10.0,Calm,Calm,-,N/A,,Overcast,0,2013-02-07 12:00:00
7:20 AM,29.3,27.3,92,30.45,10.0,Calm,Calm,-,N/A,,Overcast,0,2013-02-07 12:20:00
7:40 AM,29.8,27.5,91,30.44,7.0,Calm,Calm,-,N/A,,Overcast,0,2013-02-07 12:40:00
8:00 AM,31.3,27.5,86,30.45,10.0,Calm,Calm,-,N/A,,Overcast,0,2013-02-07 13:00:00
8:20 AM,32.0,27.0,82,30.45,10.0,Calm,Calm,-,N/A,,Mostly Cloudy,0,2013-02-07 13:20:00
8:40 AM,32.5,26.6,79,30.46,10.0,Calm,Calm,-,N/A,,Scattered Clouds,0,2013-02-07 13:40:00
9:00 AM,33.4,27.3,78,30.46,10.0,Calm,Calm,-,N/A,,Mostly Cloudy,0,2013-02-07 14:00:00
9:20 AM,34.7,27.3,74,30.46,10.0,Calm,Calm,-,N/A,,Overcast,0,2013-02-07 14:20:00
10:00 AM,35.8,26.2,68,30.46,10.0,ESE,4.6,-,N/A,,Overcast,120,2013-02-07 15:00:00
10:20 AM,36.5,26.6,67,30.46,10.0,East,4.6,-,N/A,,Overcast,90,2013-02-07 15:20:00
10:40 AM,36.7,26.4,66,30.46,10.0,ESE,4.6,-,N/A,,Overcast,110,2013-02-07 15:40:00
11:00 AM,37.4,25.9,63,30.45,10.0,SE,4.6,-,N/A,,Overcast,130,2013-02-07 16:00:00
11:20 AM,37.9,26.4,63,30.45,10.0,SE,4.6,-,N/A,,Overcast,130,2013-02-07 16:20:00
11:40 AM,38.8,27.1,63,30.43,10.0,ESE,5.8,-,N/A,,Overcast,120,2013-02-07 16:40:00
12:00 PM,39.2,26.8,61,30.42,10.0,East,3.5,-,N/A,,Overcast,100,2013-02-07 17:00:00
12:20 PM,39.6,27.3,62,30.41,10.0,East,4.6,-,N/A,,Overcast,90,2013-02-07 17:20:00
12:40 PM,39.9,27.5,61,30.40,10.0,SE,3.5,-,N/A,,Overcast,130,2013-02-07 17:40:00
1:00 PM,39.9,27.7,62,30.39,10.0,East,4.6,-,N/A,,Overcast,90,2013-02-07 18:00:00
1:20 PM,40.1,27.3,60,30.39,10.0,SE,5.8,-,N/A,,Overcast,130,2013-02-07 18:20:00
1:40 PM,40.1,27.5,61,30.38,10.0,ENE,4.6,-,N/A,,Overcast,60,2013-02-07 18:40:00
2:00 PM,40.1,27.5,61,30.37,10.0,East,5.8,-,N/A,,Overcast,90,2013-02-07 19:00:00
2:20 PM,40.1,27.5,61,30.36,10.0,East,6.9,-,N/A,,Mostly Cloudy,100,2013-02-07 19:20:00
2:40 PM,40.1,27.7,61,30.35,10.0,East,6.9,-,N/A,,Mostly Cloudy,90,2013-02-07 19:40:00
3:00 PM,40.3,27.5,60,30.34,10.0,East,5.8,-,N/A,,Mostly Cloudy,80,2013-02-07 20:00:00
3:20 PM,40.6,27.3,59,30.33,10.0,East,6.9,-,N/A,,Mostly Cloudy,80,2013-02-07 20:20:00
3:40 PM,40.6,27.1,59,30.33,10.0,East,6.9,-,N/A,,Mostly Cloudy,80,2013-02-07 20:40:00
4:00 PM,40.5,27.0,59,30.32,10.0,ESE,4.6,-,N/A,,Scattered Clouds,120,2013-02-07 21:00:00
4:20 PM,40.6,27.0,58,30.32,10.0,East,5.8,-,N/A,,Mostly Cloudy,100,2013-02-07 21:20:00
4:40 PM,40.5,26.6,58,30.32,10.0,East,6.9,-,N/A,,Mostly Cloudy,90,2013-02-07 21:40:00
5:00 PM,40.3,26.6,58,30.31,10.0,East,4.6,-,N/A,,Scattered Clouds,90,2013-02-07 22:00:00
5:20 PM,40.1,26.8,59,30.32,10.0,East,3.5,-,N/A,,Mostly Cloudy,100,2013-02-07 22:20:00
5:40 PM,39.4,27.0,61,30.33,10.0,East,3.5,-,N/A,,Mostly Cloudy,90,2013-02-07 22:40:00
6:00 PM,39.4,27.1,62,30.33,10.0,Calm,Calm,-,N/A,,Overcast,0,2013-02-07 23:00:00
6:20 PM,39.2,27.5,63,30.33,10.0,Calm,Calm,-,N/A,,Mostly Cloudy,0,2013-02-07 23:20:00
6:40 PM,39.2,27.3,62,30.34,10.0,Calm,Calm,-,N/A,,Scattered Clouds,0,2013-02-07 23:40:00
7:00 PM,39.2,26.8,61,30.33,10.0,ENE,3.5,-,N/A,,Clear,60,2013-02-08 00:00:00
7:20 PM,38.7,27.0,63,30.33,10.0,Calm,Calm,-,N/A,,Scattered Clouds,0,2013-02-08 00:20:00
8:00 PM,38.3,28.4,68,30.31,10.0,ENE,3.5,-,N/A,,Scattered Clouds,60,2013-02-08 01:00:00
8:20 PM,38.5,29.3,70,30.31,10.0,ENE,3.5,-,N/A,,Mostly Cloudy,70,2013-02-08 01:20:00
8:40 PM,38.3,30.2,73,30.30,10.0,NE,3.5,-,N/A,,Mostly Cloudy,50,2013-02-08 01:40:00
9:00 PM,38.3,30.9,75,30.30,10.0,NE,4.6,-,N/A,,Mostly Cloudy,50,2013-02-08 02:00:00
9:20 PM,38.5,31.3,75,30.29,10.0,ENE,4.6,-,N/A,,Overcast,60,2013-02-08 02:20:00
10:00 PM,38.8,32.0,76,30.28,10.0,ENE,5.8,-,N/A,,Overcast,70,2013-02-08 03:00:00
10:20 PM,38.5,32.0,78,30.27,10.0,NE,6.9,-,N/A,,Overcast,50,2013-02-08 03:20:00
10:40 PM,37.8,31.3,77,30.25,10.0,NE,4.6,-,N/A,,Overcast,50,2013-02-08 03:40:00
11:20 PM,37.4,30.0,75,30.23,10.0,NE,6.9,-,N/A,,Overcast,40,2013-02-08 04:20:00